Location: Bijele Vode
(45.2833°N, 16.2000°E)
Time: 14:43:14
(UTC+00:00)

ATLAS 2AS CENTAUR R/B - Pass Details

Date: 18 September 2020
Orbit: 939 x 1273 km, 63.7° (Epoch: 27 October)

Event Time Altitude Azimuth Distance (km) Brightness Sun altitude
Rises 21:02:26 0° 233° (SW) 4,201 5.8 -37.7°
Enters shadow 21:04:49 - 236° (WSW) 3,407 5.3 -37.9°
Exits shadow 21:11:57 53° 285° (WNW) 1,536 3.5 -38.6°
Maximum altitude 21:13:05 57° 315° (NW) 1,475 3.5 -38.7°
Drops below altitude 10° 21:20:49 10° 34° (NNE) 3,217 5.4 -39.4°
Sets 21:23:38 0° 38° (NE) 4,154 6.0 -39.6°
